Regional Weather Roundup
Issued by NWS Wakefield, VA

Home | Current Version | Previous Version | Graphics & Text | Print | Product List | Glossary On
Versions: 1 2 3 4 5 6 7 8 9 10 11 12 13 14 15 16 17 18 19 20 21 22 23 24 25 26 27 28 29 30 31 32 33 34 35 36 37 38 39 40 41 42 43 44 45 46 47 48 49 50
000
ASUS41 KAKQ 302310
RWRAKQ

REGIONAL WEATHER ROUNDUP
NATIONAL WEATHER SERVICE WAKEFIELD VA
700 PM EDT WED JUL 30 2014

Note: "fair" indicates few or no clouds below 12,000 feet with no
significant weather and/or obstructions to visibility. * = Denotes
station may not report precipitation (e.g., rain,snow,etc.),
thunder or fog.

VAZ042-051-052>054-056-310000-
NORTHERN VIRGINIA

CITY           SKY/WX    TMP DP  RH WIND       PRES   REMARKS
WASH NATIONAL  MOSUNNY   78  54  43 S12       30.03S
DULLES         MOSUNNY   75  52  44 S8        30.03S
FORT BELVOIR   SUNNY     76  57  51 S2        30.04R
QUANTICO       MOSUNNY   77  55  46 S7        30.04S
FREDERICKSBRG* SUNNY     79  57  47 S5        30.03S
STAFFORD*      SUNNY     77  56  48 S3        30.08R
WARRENTON      SUNNY     78  64  62 CALM      30.04R
CULPEPER*      SUNNY    N/A N/A N/A SW3       30.04R
MANASSAS*      SUNNY     77  55  47 S3        30.03
LEESBURG*      SUNNY     79  59  50 W5        30.04R
WINCHESTER     MOSUNNY   73  54  49 SW6       30.04R
$$

VAZ048-049-060>072-079>083-310000-
CENTRAL AND SOUTH CENTRAL VIRGINIA...AND NORTH CENTRAL NORTH CAROLINA

CITY           SKY/WX    TMP DP  RH WIND       PRES   REMARKS
RICHMOND       MOSUNNY   80  51  36 SW5       30.05R
CHESTERFIELD*  CLEAR    N/A N/A N/A SW3       30.06S
HANOVER        SUNNY     79  52  38 CALM      30.06R
TAPPAHANNOCK*  MOSUNNY   79  50  36 CALM      30.06R
CHARLOTTSVILLE SUNNY     76  54  46 SW5       30.04R
ORANGE*        SUNNY     77  55  47 SE5       30.06R
LOUISA*        SUNNY     75  61  60 S3        30.04R
FARMVILLE*     SUNNY     77  55  47 CALM      30.03S
SOUTH HILL*    MOSUNNY   79  64  61 CALM      30.10S
ROANOKE RAPIDS NOT AVBL
RALEIGH        PTSUNNY   76  65  68 NW3       30.06R
$$

VAZ088>098-310000-
SOUTHEAST VIRGINIA

CITY           SKY/WX    TMP DP  RH WIND       PRES   REMARKS
NORFOLK        SUNNY     77  57  50 E7        30.05R
VIRGINIA BEACH MOSUNNY   74  59  59 E8        30.05S
NORFOLK NAVAL  MOSUNNY   78  59  51 E9        30.06S
WEST POINT*    SUNNY     80  55  42 CALM      30.06S
NEWPORT NEWS   SUNNY     80  60  50 E5        30.05R
LANGLEY AFB    MOSUNNY   77  61  58 NE8       30.04S
FORT EUSTIS    SUNNY     78  58  50 NW3       30.03S
WILLIAMSBURG*  SUNNY     81  63  54 CALM      30.06R
FRANKLIN*      SUNNY     79  63  57 CALM      30.05R
WAKEFIELD      SUNNY     78  65  63 CALM      30.05S
$$

VAZ020-022-025-037-045-310000-
WESTERN AND SOUTHWEST VIRGINIA

CITY           SKY/WX    TMP DP  RH WIND       PRES   REMARKS
STAUNTON*      PTSUNNY   74  54  49 S6        30.08R
HOT SPRINGS VA MOSUNNY   63  48  58 W8        30.18R
LYNCHBURG      SUNNY     76  55  48 S5        30.07S
DANVILLE       SUNNY     79  59  50 E5        30.05S
MARTINSVILLE   SUNNY     81  53  38 CALM      30.08R
ROANOKE        MOSUNNY   75  55  49 SE6       30.08S
BLACKSBURG     SUNNY     73  54  49 CALM        N/A
DUBLIN*        CLOUDY    74  52  44 NW3       30.11R
MARION*        SUNNY     72  52  49 NW7       30.15R
HILLSVILLE*    CLOUDY    69  53  56 S5        30.12S
RICHLANDS*     CLEAR     74  54  50 W6        30.13S
WISE*          MOSUNNY   72  52  49 S5        30.15S
ABINGDON*      SUNNY     75  52  44 NW3       30.11S
$$

MDZ021>025-VAZ099-100-310000-
SOUTHERN MARYLAND AND THE DELMARVA PENINSULA

CITY           SKY/WX    TMP DP  RH WIND       PRES   REMARKS
PATUXENT RIVER MOSUNNY   77  51  40 W3        30.04S
BAY BRIDGE APT   N/A     75  52  43 S5        30.04R
LEONARDTOWN    SUNNY     75  52  43 CALM      30.06S
DOVER          SUNNY     75  52  43 W7        30.03R
GEORGETOWN     SUNNY     77  50  38 S7        30.05R
EASTON         SUNNY     77  55  47 SW3       30.08S
CAMBRIDGE      SUNNY     77  48  36 CALM      30.05R
SALISBURY      SUNNY     78  52  40 SW6       30.05R
OCEAN CITY     SUNNY     73  60  63 VRB6      30.05R
WALLOPS ISLAND SUNNY     77  55  46 NW7       30.06R
ACCOMACK*        N/A     77  54  44 NW3       30.05S
$$

NCZ012>017-030>032-310000-
EASTERN NORTH CAROLINA

CITY           SKY/WX    TMP DP  RH WIND       PRES   REMARKS
ELIZABETH CITY SUNNY     76  61  59 E10       30.05S
AHOSKIE*       MOSUNNY   75  63  66 CALM      30.05R
EDENTON*       SUNNY     78  63  59 E5        30.05R
CURRITUCK*     SUNNY     78  58  50 E5        30.06S
KILL DEVIL HLS SUNNY     76  60  59 E6        30.05S
MANTEO         NOT AVBL
CAPE HATTERAS  SUNNY     78  62  57 NE6       30.05S
GOLDSBORO      SUNNY     81  67  62 E6        30.01R
WASHINGTON     MOSUNNY   79  65  61 E5        30.04R
GREENVILLE     SUNNY     81  63  54 E6        30.05S
NEW BERN       SUNNY     81  63  54 E7        30.05R
WILMINGTON     MOSUNNY   80  64  58 E8        30.02R
$$

VAZ048-310000-
ELSEWHERE

CITY           SKY/WX    TMP DP  RH WIND       PRES   REMARKS
HARRISBURG PA  MOSUNNY   76  55  48 S7        30.01R
BALTIMORE      MOSUNNY   77  49  37 CALM      30.02S
ANNAPOLIS      SUNNY     75  54  47 S13       30.03S
ANDREWS AFB    SUNNY     76  54  45 S7        30.04R
WILMINGTON DE  SUNNY     76  54  46 SW6       30.04R
PHILADELPHIA   MOSUNNY   78  53  41 SW12      30.03R
WILDWOOD NJ*   SUNNY     73  55  53 S9        30.06R
ATLANTIC CITY  SUNNY     76  53  44 SW12      30.03R
HENDERSON NC   MOSUNNY   70  66  85 CALM      30.06S
GREENSBORO     MOSUNNY   78  60  53 E3        30.05R
ROCKY MOUNT    SUNNY     81  63  54 CALM      30.04R
FAYETTEVILLE   MOSUNNY   83  61  47 E7        30.01R
CHARLOTTE      CLOUDY    80  59  48 N5        30.04S
$$

VAZ100-310000-
MARINE

STATION/POSITION TIME  TEMP    WIND        PRES    WAVE   SWELL
                       AIR SEA DIR/SP/G            HT/PER HT/PER
                 (UTC) (F)     (DEG/KT/KT) (MB)    (FT/S) (FT/S)
44066 TX TWR #4  2300   74 76  230/  2/  4 1017.3R   3/ 8   3/ 8
CAPE MAY NJ      2300   72 79  180/  7/  9 1017.0R
LEWES DE         2300   74 74  150/  6/  8 1017.1R
15NM E FENWICK I 2300   74 75              1017.8R   2/ 8
OCEAN-CITY-INLET 2300   74 74  170/  8/ 12 1017.1R
WACHAPREAGUE VA  2300   77 82  270/  3/  5 1017.5S
THOMAS POINT MD  2300   75 78  160/ 12/ 13 1017.5R
GOOSES REEF MD   2300   76     240/  8/ 10 1017.6S
COVE POINT MD    2300   78     280/  3/  5 1017.2R
SOLOMONS ISLAND  2300      80                N/A
BISHOPS HEAD MD  2300   76 79  240/  1/  2 1017.2R
PINEY POINT MD   2300          350/  3/  4   N/A
POTOMAC MD       2300   76     200/  6/  8 1016.8R
CAMBRIDGE MD     2300   77 79  240/  4/  6 1017.0R
LEWISETTA VA     2300   76 78  180/  3/  5 1017.3R
RAPPAHANNOCK LGT 2300           90/  2/  3 1018.1S
STINGRAY PT      2300   76     160/  6/  8 1018.1S
YORK RVR RNG VA  2300   75     120/  6/  6 1016.9S
YORKTOWN VA      2300   76 80   80/  8/  9 1017.1S
JAMESTOWN VA     2300   77     360/  2/  2   N/A
DOMINION TERM VA 2300   79     300/  3/  4 1017.3F
KIPTOPEKE VA     2300      82   80/  3/  4   N/A
CHES BAY BRIDGE  2300   75 78   80/  7/  8 1017.0S
CAPE HENRY VA    2300   75     120/  4/  6 1016.4S
WILLOUBY STN VA  2300           CALM  /  1 1016.7R
S CRANEY ISL VA  2300          190/  1/  3 1017.4R
CAPE HENRY BUOY  2200      79                N/A     2/ 8
1ST LANDING BUOY 2300   76     120/  6/  8 1017.2S
CAPE CHARLES BUO 2300      79                N/A     2/ 8
OFFSHORE WE BUOY 2200      79                N/A     2/ 8
64NM E OF VA BCH 2300   75 78   20/  6/  8 1017.8R   2/ 7   2/ 7
DUCK PIER NC     2300   76 77   90/  8/  9 1017.2S
44056 DUCK FRF   2200                        N/A     2/ 7
OREGON INLET NC  2300   76 78   60/  8/ 10 1017.7F
HATTERAS NC      2300   78 80   60/  8/ 11 1018.0R
DIAMOND SHLS NC  2300          VRB 14/ 16  1017.1R   4/ 7   2/ 7
CAPE LOOKOUT NC  2200   78      60/ 14/ 16 1016.9F
$$


USA.gov is the U.S. government's official web portal to all federal, state and local government web resources and services.